N5NC CFP6-CYQH

Flight info

Callsign N5NC
Flight time 0h 28m
Altitude 22000
Route DCT YQH
Aircraft C525/L-SDFGRWYZ/LB1

Departure

Time 2026-04-20 20:28
Airport La Biche River Airport (CFP6)

Arrival

Time 2026-04-20 20:56
Airport Watson Lake Airport (CYQH)
Time Latitude Longitude Altitude Speed Heading
2026-04-20 20:27 60.09587 -124.67871 21482 ft 220 kts 271°
2026-04-20 20:28 60.09629 -124.69899 21876 ft 221 kts 271°
2026-04-20 20:28 60.09715 -124.74219 22012 ft 245 kts 271°
2026-04-20 20:28 60.09785 -124.77752 22030 ft 262 kts 271°
2026-04-20 20:28 60.09857 -124.81466 22025 ft 277 kts 271°
2026-04-20 20:29 60.09934 -124.85420 22026 ft 287 kts 271°
2026-04-20 20:29 60.10010 -124.89371 22022 ft 286 kts 271°
2026-04-20 20:29 60.10086 -124.93317 22024 ft 284 kts 271°
2026-04-20 20:29 60.10158 -124.97236 22022 ft 282 kts 271°
2026-04-20 20:30 60.10230 -125.01181 22079 ft 280 kts 271°
2026-04-20 20:30 60.10298 -125.04973 22516 ft 271 kts 271°
2026-04-20 20:30 60.10366 -125.08735 23076 ft 271 kts 271°
2026-04-20 20:30 60.10430 -125.12472 23623 ft 271 kts 271°
2026-04-20 20:31 60.10494 -125.16199 24167 ft 270 kts 271°
2026-04-20 20:31 60.10556 -125.19924 24698 ft 268 kts 271°
2026-04-20 20:31 60.10618 -125.23692 24985 ft 273 kts 271°
2026-04-20 20:31 60.10679 -125.27468 25248 ft 277 kts 271°
2026-04-20 20:32 60.10741 -125.31390 25505 ft 282 kts 271°
2026-04-20 20:32 60.10803 -125.35355 25590 ft 290 kts 271°
2026-04-20 20:32 60.10865 -125.39414 25602 ft 292 kts 271°
2026-04-20 20:32 60.10925 -125.43417 25592 ft 291 kts 271°
2026-04-20 20:33 60.10984 -125.47450 25579 ft 289 kts 271°
2026-04-20 20:33 60.11043 -125.51465 25584 ft 287 kts 271°
2026-04-20 20:33 60.11100 -125.55470 25592 ft 285 kts 271°
2026-04-20 20:33 60.11165 -125.59367 25596 ft 283 kts 272°
2026-04-20 20:34 60.11260 -125.63335 25596 ft 282 kts 270°
2026-04-20 20:34 60.11240 -125.67240 25586 ft 282 kts 268°
2026-04-20 20:34 60.11190 -125.71179 25583 ft 282 kts 268°
2026-04-20 20:34 60.11136 -125.75056 25590 ft 280 kts 268°
2026-04-20 20:35 60.11081 -125.78976 25601 ft 280 kts 268°
2026-04-20 20:35 60.11028 -125.82818 25589 ft 281 kts 268°
2026-04-20 20:35 60.10974 -125.86769 25591 ft 281 kts 268°
2026-04-20 20:35 60.10922 -125.90669 25587 ft 281 kts 269°
2026-04-20 20:36 60.10870 -125.94522 25605 ft 280 kts 268°
2026-04-20 20:36 60.10818 -125.98452 25598 ft 280 kts 269°
2026-04-20 20:36 60.10765 -126.02337 25588 ft 281 kts 269°
2026-04-20 20:36 60.10711 -126.06215 25601 ft 280 kts 268°
2026-04-20 20:37 60.10656 -126.10127 25598 ft 281 kts 268°
2026-04-20 20:37 60.10601 -126.14040 25611 ft 281 kts 268°
2026-04-20 20:37 60.10545 -126.17896 25605 ft 281 kts 268°
2026-04-20 20:37 60.10487 -126.21834 25621 ft 281 kts 269°
2026-04-20 20:38 60.10428 -126.25728 25618 ft 281 kts 268°
2026-04-20 20:38 60.10368 -126.29624 25630 ft 281 kts 269°
2026-04-20 20:38 60.10308 -126.33505 25625 ft 281 kts 269°
2026-04-20 20:38 60.10246 -126.37384 25633 ft 281 kts 268°
2026-04-20 20:39 60.10183 -126.41288 25633 ft 281 kts 269°
2026-04-20 20:39 60.10119 -126.45200 25619 ft 281 kts 268°
2026-04-20 20:39 60.10054 -126.49071 25625 ft 280 kts 268°
2026-04-20 20:39 60.09988 -126.52964 25648 ft 280 kts 268°
2026-04-20 20:40 60.09920 -126.56887 25626 ft 281 kts 269°
2026-04-20 20:40 60.09851 -126.60787 25637 ft 281 kts 269°
2026-04-20 20:40 60.09781 -126.64690 25630 ft 281 kts 269°
2026-04-20 20:40 60.09710 -126.68600 25635 ft 282 kts 268°
2026-04-20 20:41 60.09636 -126.72572 25629 ft 283 kts 268°
2026-04-20 20:41 60.09562 -126.76538 25605 ft 284 kts 268°
2026-04-20 20:41 60.09486 -126.80473 25639 ft 284 kts 268°
2026-04-20 20:41 60.09410 -126.84403 25640 ft 284 kts 268°
2026-04-20 20:42 60.09333 -126.88341 25629 ft 284 kts 268°
2026-04-20 20:42 60.09253 -126.92313 25636 ft 284 kts 268°
2026-04-20 20:42 60.09173 -126.96279 25637 ft 285 kts 268°
2026-04-20 20:42 60.09092 -127.00200 25616 ft 285 kts 268°
2026-04-20 20:43 60.09009 -127.04170 25636 ft 285 kts 268°
2026-04-20 20:43 60.08925 -127.08124 25633 ft 285 kts 268°
2026-04-20 20:43 60.08841 -127.12058 25636 ft 285 kts 268°
2026-04-20 20:43 60.08754 -127.16007 25641 ft 285 kts 268°
2026-04-20 20:44 60.08667 -127.19946 25636 ft 285 kts 268°
2026-04-20 20:44 60.08579 -127.23905 25266 ft 290 kts 268°
2026-04-20 20:44 60.08488 -127.27907 24800 ft 289 kts 268°
2026-04-20 20:44 60.08396 -127.31883 24317 ft 287 kts 268°
2026-04-20 20:45 60.08305 -127.35883 23821 ft 285 kts 268°
2026-04-20 20:45 60.08284 -127.39803 23344 ft 283 kts 270°
2026-04-20 20:45 60.08297 -127.43729 22855 ft 281 kts 271°
2026-04-20 20:45 60.08320 -127.47608 22319 ft 281 kts 271°
2026-04-20 20:46 60.08344 -127.51493 21778 ft 279 kts 271°
2026-04-20 20:46 60.08367 -127.55335 21246 ft 277 kts 271°
2026-04-20 20:46 60.08392 -127.59162 20712 ft 276 kts 271°
2026-04-20 20:46 60.08414 -127.62943 20181 ft 274 kts 271°
2026-04-20 20:47 60.08437 -127.66773 19645 ft 273 kts 270°
2026-04-20 20:47 60.08458 -127.70563 19110 ft 272 kts 270°
2026-04-20 20:47 60.08478 -127.74352 18577 ft 272 kts 270°
2026-04-20 20:47 60.08497 -127.78111 18051 ft 272 kts 270°
2026-04-20 20:48 60.08516 -127.81860 17533 ft 273 kts 270°
2026-04-20 20:48 60.08533 -127.85632 17007 ft 273 kts 270°
2026-04-20 20:48 60.08550 -127.89442 16474 ft 273 kts 270°
2026-04-20 20:48 60.08565 -127.93250 15947 ft 274 kts 270°
2026-04-20 20:49 60.08579 -127.97026 15425 ft 275 kts 270°
2026-04-20 20:49 60.08593 -128.00844 14906 ft 275 kts 270°
2026-04-20 20:49 60.08605 -128.04675 14382 ft 276 kts 270°
2026-04-20 20:49 60.08625 -128.08489 13948 ft 274 kts 272°
2026-04-20 20:50 60.08746 -128.12248 13554 ft 271 kts 274°
2026-04-20 20:50 60.08895 -128.15987 13159 ft 270 kts 275°
2026-04-20 20:50 60.09053 -128.19699 12773 ft 268 kts 275°
2026-04-20 20:50 60.09212 -128.23428 12374 ft 267 kts 275°
2026-04-20 20:51 60.09369 -128.27071 11990 ft 266 kts 275°
2026-04-20 20:51 60.09527 -128.30785 11596 ft 265 kts 276°
2026-04-20 20:51 60.09682 -128.34421 11206 ft 264 kts 276°
2026-04-20 20:51 60.09837 -128.38069 10818 ft 263 kts 275°
2026-04-20 20:52 60.09989 -128.41673 10426 ft 259 kts 276°
2026-04-20 20:52 60.10138 -128.45236 10034 ft 256 kts 276°
2026-04-20 20:52 60.10283 -128.48723 9644 ft 253 kts 276°
2026-04-20 20:52 60.10412 -128.52202 9242 ft 248 kts 275°
2026-04-20 20:53 60.10493 -128.55585 8812 ft 232 kts 274°
2026-04-20 20:53 60.10537 -128.58676 8241 ft 224 kts 273°
2026-04-20 20:53 60.10559 -128.61746 7485 ft 224 kts 272°
2026-04-20 20:53 60.10562 -128.64847 6663 ft 224 kts 272°
2026-04-20 20:54 60.10553 -128.67899 5958 ft 218 kts 271°
2026-04-20 20:54 60.10563 -128.70821 5109 ft 202 kts 272°
2026-04-20 20:54 60.10621 -128.73532 4225 ft 194 kts 274°
2026-04-20 20:54 60.10755 -128.76102 3438 ft 186 kts 278°
2026-04-20 20:55 60.11008 -128.78409 2910 ft 152 kts 283°
2026-04-20 20:55 60.11292 -128.80276 2476 ft 128 kts 287°
2026-04-20 20:55 60.11553 -128.81738 2271 ft 94 kts 288°
2026-04-20 20:55 60.11734 -128.82727 2274 ft 59 kts 288°
2026-04-20 20:56 60.11812 -128.83182 2275 ft 4 kts 149°
2026-04-20 20:56 60.11785 -128.83052 2275 ft 15 kts 108°
2026-04-20 20:56 60.11740 -128.82793 2274 ft 20 kts 110°
2026-04-20 20:56 60.11681 -128.82523 2273 ft 21 kts 139°
2026-04-20 20:57 60.11534 -128.82445 2271 ft 21 kts 172°
2026-04-20 20:57 60.11456 -128.82352 2271 ft 0 kts 108°